Time,TemperatureF,DewpointF,PressureIn,WindDirection,WindDirectionDegrees,WindSpeedMPH,WindSpeedGustMPH,Humidity,HourlyPrecipIn,Conditions,Clouds,dailyrainin,SoftwareType,DateUTC
2013-01-09 00:00:00,31.0,-99.9,-100.00,NNW,342,10.0,13.0,-999,-99.99,,,-99.99,,2013-01-09 07:00:00,
2013-01-09 00:53:00,31.0,-99.9,-100.00,NNW,342,10.0,13.0,-999,-99.99,,,-99.99,,2013-01-09 07:53:00,
2013-01-09 01:00:00,29.0,-99.9,-100.00,West,271,4.0,10.0,-999,-99.99,,,-99.99,,2013-01-09 08:00:00,
2013-01-09 01:53:00,29.0,-99.9,-100.00,West,271,4.0,10.0,-999,-99.99,,,-99.99,,2013-01-09 08:53:00,
2013-01-09 02:00:00,29.0,-99.9,-100.00,WNW,289,6.0,7.0,-999,-99.99,,,-99.99,,2013-01-09 09:00:00,
2013-01-09 02:54:00,29.0,-99.9,-100.00,WNW,289,6.0,7.0,-999,-99.99,,,-99.99,,2013-01-09 09:54:00,
2013-01-09 03:00:00,29.0,-99.9,-100.00,WSW,251,5.0,8.0,-999,-99.99,,,-99.99,,2013-01-09 10:00:00,
2013-01-09 03:53:00,29.0,-99.9,-100.00,WSW,251,5.0,8.0,-999,-99.99,,,-99.99,,2013-01-09 10:53:00,
2013-01-09 04:00:00,29.0,-99.9,-100.00,West,259,3.0,6.0,-999,-99.99,,,-99.99,,2013-01-09 11:00:00,
2013-01-09 04:53:00,29.0,-99.9,-100.00,West,259,3.0,6.0,-999,-99.99,,,-99.99,,2013-01-09 11:53:00,
2013-01-09 05:00:00,27.0,-99.9,-100.00,West,265,4.0,6.0,-999,-99.99,,,-99.99,,2013-01-09 12:00:00,
2013-01-09 05:53:00,27.0,-99.9,-100.00,West,265,4.0,6.0,-999,-99.99,,,-99.99,,2013-01-09 12:53:00,
2013-01-09 06:00:00,27.0,-99.9,-100.00,WNW,285,7.0,9.0,-999,-99.99,,,-99.99,,2013-01-09 13:00:00,
2013-01-09 06:53:00,27.0,-99.9,-100.00,WNW,285,7.0,9.0,-999,-99.99,,,-99.99,,2013-01-09 13:53:00,
2013-01-09 07:00:00,27.0,-99.9,-100.00,West,260,5.0,6.0,-999,-99.99,,,-99.99,,2013-01-09 14:00:00,
2013-01-09 07:53:00,27.0,-99.9,-100.00,West,260,5.0,6.0,-999,-99.99,,,-99.99,,2013-01-09 14:53:00,
2013-01-09 08:00:00,27.0,-99.9,-100.00,SSW,202,2.0,14.0,-999,-99.99,,,-99.99,,2013-01-09 15:00:00,
2013-01-09 08:53:00,27.0,-99.9,-100.00,SSW,202,2.0,14.0,-999,-99.99,,,-99.99,,2013-01-09 15:53:00,
2013-01-09 09:00:00,32.0,-99.9,-100.00,WSW,249,9.0,10.0,-999,-99.99,,,-99.99,,2013-01-09 16:00:00,
2013-01-09 09:53:00,32.0,-99.9,-100.00,WSW,249,9.0,10.0,-999,-99.99,,,-99.99,,2013-01-09 16:53:00,
2013-01-09 10:00:00,37.0,-99.9,-100.00,WSW,256,7.0,7.0,-999,-99.99,,,-99.99,,2013-01-09 17:00:00,
2013-01-09 10:54:00,37.0,-99.9,-100.00,WSW,256,7.0,7.0,-999,-99.99,,,-99.99,,2013-01-09 17:54:00,
2013-01-09 11:00:00,44.0,-99.9,-100.00,West,268,16.0,20.0,-999,-99.99,,,-99.99,,2013-01-09 18:00:00,
2013-01-09 11:53:00,44.0,-99.9,-100.00,West,268,16.0,20.0,-999,-99.99,,,-99.99,,2013-01-09 18:53:00,
2013-01-09 12:00:00,50.0,-99.9,-100.00,WSW,251,8.0,16.0,-999,-99.99,,,-99.99,,2013-01-09 19:00:00,
2013-01-09 12:53:00,50.0,-99.9,-100.00,WSW,251,8.0,16.0,-999,-99.99,,,-99.99,,2013-01-09 19:53:00,
2013-01-09 13:00:00,51.0,-99.9,-100.00,WSW,240,10.0,14.0,-999,-99.99,,,-99.99,,2013-01-09 20:00:00,
2013-01-09 13:53:00,51.0,-99.9,-100.00,WSW,240,10.0,14.0,-999,-99.99,,,-99.99,,2013-01-09 20:53:00,
2013-01-09 14:00:00,53.0,-99.9,-100.00,SW,231,9.0,14.0,-999,-99.99,,,-99.99,,2013-01-09 21:00:00,
2013-01-09 14:53:00,53.0,-99.9,-100.00,SW,231,9.0,14.0,-999,-99.99,,,-99.99,,2013-01-09 21:53:00,
2013-01-09 15:00:00,51.0,-99.9,-100.00,SW,225,6.0,7.0,-999,-99.99,,,-99.99,,2013-01-09 22:00:00,
2013-01-09 15:53:00,51.0,-99.9,-100.00,SW,225,6.0,7.0,-999,-99.99,,,-99.99,,2013-01-09 22:53:00,
2013-01-09 16:00:00,50.0,-99.9,-100.00,SSW,200,15.0,17.0,-999,-99.99,,,-99.99,,2013-01-09 23:00:00,
2013-01-09 16:53:00,50.0,-99.9,-100.00,SSW,200,15.0,17.0,-999,-99.99,,,-99.99,,2013-01-09 23:53:00,
2013-01-09 17:00:00,46.0,-99.9,-100.00,South,178,2.0,10.0,-999,-99.99,,,-99.99,,2013-01-10 00:00:00,
2013-01-09 17:53:00,46.0,-99.9,-100.00,South,178,2.0,10.0,-999,-99.99,,,-99.99,,2013-01-10 00:53:00,
2013-01-09 18:00:00,46.0,-99.9,-100.00,SSW,211,6.0,22.0,-999,-99.99,,,-99.99,,2013-01-10 01:00:00,
2013-01-09 18:53:00,46.0,-99.9,-100.00,SSW,211,6.0,22.0,-999,-99.99,,,-99.99,,2013-01-10 01:53:00,
2013-01-09 19:00:00,41.0,-99.9,-100.00,West,280,0.0,7.0,-999,-99.99,,,-99.99,,2013-01-10 02:00:00,
2013-01-09 20:00:00,39.0,-99.9,-100.00,South,178,4.0,11.0,-999,-99.99,,,-99.99,,2013-01-10 03:00:00,
2013-01-09 20:53:00,39.0,-99.9,-100.00,South,178,4.0,11.0,-999,-99.99,,,-99.99,,2013-01-10 03:53:00,
2013-01-09 21:00:00,37.0,-99.9,-100.00,NNW,333,2.0,6.0,-999,-99.99,,,-99.99,,2013-01-10 04:00:00,
2013-01-09 21:53:00,37.0,-99.9,-100.00,NNW,333,2.0,6.0,-999,-99.99,,,-99.99,,2013-01-10 04:53:00,
2013-01-09 22:00:00,37.0,-99.9,-100.00,SSW,202,3.0,9.0,-999,-99.99,,,-99.99,,2013-01-10 05:00:00,
2013-01-09 22:53:00,37.0,-99.9,-100.00,SSW,202,3.0,9.0,-999,-99.99,,,-99.99,,2013-01-10 05:53:00,
2013-01-09 23:00:00,35.0,-99.9,-100.00,NW,323,2.0,6.0,-999,-99.99,,,-99.99,,2013-01-10 06:00:00,
2013-01-09 23:53:00,35.0,-99.9,-100.00,NW,323,2.0,6.0,-999,-99.99,,,-99.99,,2013-01-10 06:53:00,